Regional Weather Roundup
Issued by NWS Boston, MA

Current Version | Previous Version | Text Only | Print | Product List | Glossary Off
Versions: 1 2 3 4 5 6 7 8 9 10 11 12 13 14 15 16 17 18 19 20 21 22 23 24 25 26 27 28 29 30 31 32 33 34 35 36 37 38 39 40 41 42 43 44 45 46 47 48 49 50
000 ASUS41 KBOX 220410 RWRBOX REGIONAL WEATHER ROUNDUP NATIONAL WEATHER SERVICE TAUNTON MA 1100 PM EST TUE NOV 21 2017 NOTE: "FAIR" INDICATES FEW OR NO CLOUDS BELOW 12,000 FEET WITH NO SIGNIFICANT WEATHER AND/OR OBSTRUCTIONS TO VISIBILITY. MAZALL-220500- EASTERN MASSACHUSETTS CITY SKY/WX TMP DP RH WIND PRES REMARKS BOSTON PTCLDY 50 40 68 SW12 30.02R BEVERLY CLEAR 48 39 71 S6 30.01R LAWRENCE CLEAR 48 37 65 S5 30.03R BEDFORD CLEAR 48 39 71 SW10 30.00R BLUE HILL N/A 50 38 63 SW21G28 30.00 NORWOOD PTCLDY 54 41 61 SW7 30.02S MARSHFIELD CLEAR 55 43 62 SW13G22 30.03R PLYMOUTH CLEAR 57 45 64 SW17G26 30.04R TAUNTON CLEAR 55 45 68 SW7G18 30.04R NEW BEDFORD CLEAR 56 48 74 SW13G22 30.04S $$ MAZALL-220500- CAPE COD AND THE ISLANDS CITY SKY/WX TMP DP RH WIND PRES REMARKS FALMOUTH CLEAR 57 46 67 SW22G31 30.06R HYANNIS CLOUDY 57 46 66 SW15G23 30.05S CHATHAM CLOUDY 53 48 83 SW8 30.09R PROVINCETOWN CLEAR 53 47 79 SW15 30.06R NANTUCKET CLOUDY 56 51 84 SW18 30.09S MARTHAS VNYRD CLOUDY 57 50 77 SW13G21 30.07S $$ MAZALL-220500- CENTRAL AND WESTERN MASSACHUSETTS CITY SKY/WX TMP DP RH WIND PRES REMARKS WORCESTER CLEAR 46 34 62 SW16G24 29.99S FITCHBURG CLEAR 51 36 56 VRB6 30.01R ORANGE CLEAR 45 35 68 S3 30.01R SPRINGFIELD PTCLDY 42 37 81 S8 30.01R WESTFIELD CLEAR 42 37 82 S7 30.01S NORTH ADAMS CLEAR 43 29 57 CALM 29.98R PITTSFIELD CLEAR 47 29 49 SW15G24 29.97R $$ RIZALL-220500- RHODE ISLAND CITY SKY/WX TMP DP RH WIND PRES REMARKS PROVIDENCE CLEAR 53 45 74 SW10 30.06R NEWPORT CLEAR 55 50 83 VRB5 30.06R BLOCK ISLAND CLOUDY 56 51 84 SW13 30.07F SMITHFIELD CLEAR 50 41 71 SW10G18 30.03S WESTERLY CLEAR 55 50 83 SW7 30.06F $$ CTZALL-220500- CONNECTICUT CITY SKY/WX TMP DP RH WIND PRES REMARKS BRADLEY INTL CLEAR 48 39 71 SW9 30.03R HARTFORD CLEAR 50 40 68 S3 30.03F BRIDGEPORT CLOUDY 53 45 74 SW8 30.05R DANBURY CLOUDY 41 36 82 CALM 30.04S GROTON CLOUDY 54 47 77 SW8 30.05F NEW HAVEN CLOUDY 52 45 77 SW3 30.05S CHESTER FAIR 50 45 81 S3 30.05S MERIDEN CLOUDY 38 36 92 CALM 30.04F WILLIMANTIC CLEAR 49 40 71 S5 30.04F OXFORD CLOUDY 44 38 79 CALM 30.04S $$ MEZ002-015-021-024-NHZ003-005-008-011-012-014-VTZ005-008-220500- NORTHERN NEW ENGLAND CITY SKY/WX TMP DP RH WIND PRES REMARKS PORTLAND ME PTCLDY 45 34 65 S6 29.98S BANGOR ME PTCLDY 48 37 65 S10 29.95S CONCORD NH CLEAR 40 33 76 CALM 29.98R MANCHESTER NH MOCLDY 44 34 67 S7 29.98R NASHUA NH CLEAR 35 32 88 CALM 30.01R PORTSMOUTH NH PTCLDY 44 34 67 S6 29.98R JAFFREY NH CLEAR 45 35 68 SW6 29.99R KEENE NH CLEAR 38 33 82 CALM 30.00R BURLINGTON VT CLOUDY 49 26 41 S13 29.87F MT. WASHINGTON PTCLDY 25 19 80 W47 N/A WCI 5 $$ NYZ052-076-220500- EASTERN NEW YORK CITY SKY/WX TMP DP RH WIND PRES REMARKS ALBANY PTCLDY 47 28 47 S13 29.95S NEW YORK CITY CLOUDY 53 40 61 S9 30.04S $$ ANZALL-220500- MARINE OBSERVATIONS STATION/POSITION TIME TEMP WIND PRES VSBY WAVE AIR SEA DIR/SP/G HT/PER (UTC) (F) (DEG/KT/KT) (MB) (MI) (FT/S) BOSTON BUOY 0350 54 50 210/ 12/ 16 1015.7R 2/ 3 BUZZARDS BAY 0300 58 220/ 27/ 29 1017.8F NANTUCKET SOUND 0350 55 50 230/ 17/ 21 1018.0S 2/ 3 MASS BAY-STELLWA 0304 53 49 210/ 14/ 16 1015.6S 2/ 4 ISLE OF SHOALS 0300 50 200/ 13/ 14 1015.6S S OF BLOCK IS NOT AVBL $$ ......................KEY......................... SKY/WX - SKY CONDITION/PRESENT WEATHER TMP - TEMPERATURE IN FAHRENHEIT DWPT - DEWPOINT IN FAHRENHEIT RH - RELATIVE HUMIDITY IN PERCENT WIND - DIRECTION AND SPEED IN MPH PRES - MEAN SEA LEVEL PRESSURE IN INCHES OF HG WCI - WIND CHILL INDEX VSB - VISIBILITY IN MILES HX - HEAT INDEX TC - TEMPERATURE IN CELSIUS VRB - VARIABLE WIND DIRECTION N/A - NOT AVAILABLE

USA.gov is the U.S. government's official web portal to all federal, state and local government web resources and services.